Temp
-7 -7 -8 -8 -8 -8 -8 -9 -9 -9 -9 -9 -9 -9 -9 -9 -9 -9 -9 -9 -9 -9 -9 -9 -9 -9 -9 -9 -9 -9 -9 -9 -9
-8 -8 -9 -9 -8 -9 -9 -9 -9 -9 -9 -9 -9 -9 -9 -9 -9 -9 -9 -9 -9 -9 -9 -9 -9 -9 -9 -9 -9 -9 -9 -9 -9
-9 -9 -9 -9 -9 -10 -10 -10 -10 -9 -9 -9 -10 -10 -10 -10 -10 -10 -10 -10 -10 -10 -10 -10 -10 -10 -10 -10 -10 -10 -10 -10 -10
-9 -10 -10 -10 -10 -10 -10 -10 -10 -10 -10 -10 -10 -10 -10 -10 -10 -10 -10 -10 -10 -10 -10 -10 -10 -10 -10 -10 -10 -10 -10 -10 -10
-10 -10 -10 -11 -11 -11 -10 -10 -10 -10 -10 -10 -10 -10 -10 -10 -10 -10 -10 -10 -10 -10 -10 -10 -10 -10 -10 -10 -10 -10 -10 -10 -10
-10 -10 -11 -11 -11 -11 -11 -11 -11 -11 -11 -11 -10 -10 -10 -11 -11 -11 -11 -11 -11 -11 -11 -10 -10 -10 -10 -10 -10 -10 -10 -10 -10
-10 -10 -11 -12 -12 -12 -11 -11 -11 -11 -11 -11 -11 -11 -11 -11 -11 -11 -11 -11 -11 -11 -11 -11 -11 -10 -11 -10 -10 -10 -10 -10 -10
-11 -11 -11 -12 -12 -12 -12 -12 -11 -11 -11 -11 -11 -11 -11 -11 -11 -11 -11 -11 -11 -11 -11 -11 -11 -11 -11 -11 -11 -11 -11 -11 -11
-11 -11 -11 -12 -12 -12 -12 -12 -12 -12 -12 -11 -11 -11 -11 -11 -11 -11 -11 -11 -11 -11 -11 -11 -11 -11 -11 -11 -11 -11 -11 -11 -11
-12 -12 -12 -12 -13 -13 -12 -12 -12 -12 -12 -12 -12 -12 -12 -12 -11 -11 -11 -11 -11 -11 -11 -11 -11 -11 -11 -11 -11 -11 -11 -11 -11
-12 -12 -12 -12 -13 -13 -13 -13 -12 -12 -12 -12 -12 -12 -12 -12 -11 -11 -11 -11 -11 -11 -11 -11 -11 -11 -11 -11 -11 -11 -11 -11 -11
-12 -12 -12 -12 -12 -13 -13 -13 -13 -12 -12 -12 -12 -12 -12 -12 -12 -11 -11 -11 -11 -11 -11 -11 -11 -11 -11 -11 -11 -11 -11 -11 -11
-13 -13 -12 -13 -13 -13 -13 -13 -13 -12 -12 -12 -12 -12 -12 -12 -12 -12 -11 -11 -11 -11 -11 -11 -11 -12 -12 -12 -12 -12 -12 -12 -12
-12 -12 -12 -13 -12 -13 -13 -13 -13 -13 -13 -13 -13 -13 -13 -13 -12 -12 -12 -12 -11 -11 -11 -12 -12 -12 -12 -12 -12 -12 -13 -13 -13
-13 -13 -13 -13 -12 -12 -13 -13 -13 -13 -13 -13 -13 -13 -13 -13 -13 -12 -12 -12 -12 -12 -12 -12 -12 -12 -12 -12 -12 -13 -13 -13 -13
-13 -13 -13 -13 -13 -13 -13 -13 -13 -13 -13 -13 -13 -13 -13 -13 -13 -13 -12 -12 -12 -12 -12 -12 -12 -12 -12 -13 -13 -13 -13 -14 -14
-13 -13 -13 -13 -13 -13 -13 -13 -13 -13 -13 -13 -13 -13 -13 -13 -13 -12 -12 -12 -12 -12 -13 -13 -12 -13 -13 -13 -13 -14 -14 -14 -14
-14 -13 -13 -13 -14 -14 -13 -13 -13 -13 -13 -13 -13 -13 -13 -13 -13 -13 -13 -13 -13 -13 -13 -13 -13 -13 -14 -14 -14 -14 -14 -15 -15
-14 -14 -14 -14 -14 -14 -13 -13 -14 -14 -13 -13 -13 -14 -13 -13 -13 -13 -13 -13 -13 -13 -14 -14 -14 -14 -15 -15 -15 -15 -15 -16 -16
-14 -14 -14 -14 -14 -14 -14 -14 -14 -14 -14 -14 -14 -14 -13 -13 -13 -13 -14 -14 -14 -14 -14 -15 -15 -15 -15 -15 -16 -16 -16 -16 -16
Height
5848 5848 5848 5848 5848 5848 5849 5849 5849 5849 5849 5848 5848 5848 5848 5848 5847 5847 5846 5846 5845 5845 5846 5845 5844 5843 5844 5843 5842 5842 5841 5841 5841
5844 5844 5844 5844 5844 5844 5845 5846 5846 5845 5845 5845 5845 5845 5845 5844 5843 5844 5843 5843 5842 5840 5841 5840 5838 5838 5838 5838 5837 5836 5836 5836 5836
5840 5840 5840 5840 5840 5841 5841 5841 5841 5841 5841 5841 5841 5841 5841 5840 5839 5840 5838 5838 5837 5837 5836 5835 5833 5833 5832 5832 5832 5831 5831 5831 5831
5836 5836 5836 5837 5838 5837 5838 5837 5837 5838 5838 5837 5837 5837 5837 5836 5837 5835 5835 5834 5833 5831 5831 5830 5829 5827 5828 5827 5827 5827 5825 5824 5825
5831 5832 5833 5833 5834 5834 5834 5834 5834 5834 5834 5834 5834 5834 5833 5833 5833 5830 5830 5828 5828 5827 5825 5825 5823 5822 5822 5823 5821 5820 5820 5819 5818
5827 5827 5828 5829 5829 5830 5830 5831 5831 5830 5830 5830 5830 5830 5829 5828 5828 5825 5825 5822 5821 5820 5820 5818 5818 5818 5817 5816 5814 5814 5814 5813 5812
5823 5823 5823 5824 5825 5825 5825 5826 5826 5826 5826 5825 5825 5825 5824 5824 5823 5821 5820 5818 5816 5815 5814 5812 5811 5811 5811 5810 5808 5806 5806 5806 5805
5818 5818 5818 5819 5820 5820 5820 5821 5821 5821 5822 5821 5820 5820 5819 5818 5817 5816 5814 5813 5812 5811 5809 5807 5805 5804 5804 5804 5801 5800 5799 5797 5798
5814 5813 5813 5814 5814 5815 5815 5816 5816 5816 5815 5815 5815 5814 5813 5812 5812 5810 5807 5806 5806 5804 5803 5801 5800 5799 5796 5797 5794 5793 5792 5789 5788
5808 5809 5808 5808 5808 5809 5809 5810 5809 5810 5810 5809 5808 5808 5806 5805 5805 5803 5801 5799 5798 5797 5796 5794 5793 5791 5788 5788 5786 5784 5783 5781 5778
5803 5803 5803 5802 5803 5803 5803 5803 5803 5803 5803 5803 5802 5800 5799 5798 5797 5796 5793 5792 5790 5789 5787 5786 5784 5782 5780 5778 5776 5774 5773 5771 5769
5797 5797 5797 5797 5796 5796 5797 5797 5796 5796 5796 5795 5794 5793 5792 5791 5789 5789 5786 5784 5782 5781 5779 5777 5775 5772 5770 5768 5766 5764 5763 5761 5758
5790 5790 5790 5791 5790 5790 5790 5790 5789 5789 5788 5788 5787 5785 5784 5782 5781 5779 5778 5777 5774 5771 5770 5767 5765 5762 5760 5758 5756 5753 5751 5748 5745
5785 5783 5783 5784 5784 5783 5782 5782 5782 5781 5781 5780 5779 5777 5776 5775 5773 5772 5769 5766 5765 5764 5760 5757 5754 5752 5749 5746 5744 5740 5738 5735 5732
5779 5777 5777 5777 5777 5776 5775 5775 5774 5773 5773 5772 5771 5770 5768 5767 5764 5762 5760 5757 5754 5752 5750 5747 5744 5741 5738 5733 5730 5726 5724 5721 5719
5771 5771 5770 5769 5770 5769 5768 5767 5766 5764 5764 5763 5762 5762 5759 5757 5756 5753 5750 5748 5745 5741 5738 5735 5732 5728 5724 5720 5717 5713 5709 5706 5703
5764 5764 5763 5763 5762 5761 5759 5756 5756 5755 5754 5754 5753 5753 5752 5748 5745 5743 5739 5736 5734 5730 5726 5722 5718 5714 5710 5706 5701 5698 5694 5691 5686
5756 5756 5754 5754 5755 5754 5752 5750 5749 5747 5745 5745 5743 5742 5741 5739 5736 5732 5729 5725 5721 5717 5712 5708 5703 5698 5693 5689 5685 5680 5676 5672 5668
5749 5749 5748 5746 5746 5746 5744 5742 5740 5738 5736 5734 5732 5731 5729 5727 5725 5721 5718 5714 5709 5705 5700 5694 5688 5683 5678 5671 5666 5661 5656 5651 5647
5742 5741 5741 5740 5737 5736 5735 5734 5733 5731 5728 5725 5723 5721 5718 5716 5713 5711 5705 5700 5694 5690 5685 5680 5675 5670 5665 5660 5654 5648 5641 5636 5630
Wind_Speed
22 21 20 21 21 20 20 19 18 18 18 19 19 20 19 20 20 22 22 22 23 24 24 24 24 24 24 23 22 23 23 22 23
23 22 22 21 21 21 21 21 21 22 22 23 23 24 24 25 26 26 28 28 28 27 26 26 26 25 25 24 24 24 24 24 25
24 23 22 21 20 20 20 21 21 22 22 22 22 21 22 22 24 23 27 27 28 28 27 27 27 26 25 24 24 22 22 23 24
25 23 22 20 20 20 20 20 19 20 20 20 20 20 20 21 22 23 25 26 27 27 26 27 27 25 25 24 24 25 24 26 26
25 24 23 21 20 21 21 20 20 20 20 19 19 19 21 23 25 30 31 32 32 30 28 27 27 27 26 27 28 27 28 28 28
25 24 23 21 20 20 20 21 20 19 20 21 22 24 26 26 26 28 28 28 31 33 33 32 31 30 29 28 29 30 30 31 31
25 25 25 24 22 23 23 23 24 24 25 25 27 27 27 26 26 27 27 26 22 24 32 35 35 35 33 32 34 34 34 35 34
26 26 27 27 26 27 27 27 28 28 28 28 29 29 28 28 28 30 30 28 26 25 25 25 24 27 30 31 32 33 34 34 36
27 28 28 28 27 29 30 30 31 31 31 30 31 32 31 30 30 30 32 30 29 28 27 27 30 31 32 34 35 37 38 38 39
30 29 28 28 29 30 32 33 34 34 34 33 34 34 33 33 31 32 33 31 30 30 30 32 35 37 37 38 37 38 40 41 42
32 31 30 29 30 31 32 35 35 36 36 36 37 37 36 36 34 33 31 30 31 33 34 37 39 39 39 40 41 42 43 43 44
33 33 33 30 30 30 32 34 36 37 37 37 37 39 39 38 36 34 32 32 34 36 38 40 41 42 42 44 43 44 45 47 48
34 35 36 32 32 35 32 34 35 38 39 39 39 40 40 40 37 36 36 35 37 39 41 42 43 45 45 45 46 48 51 51 51
34 36 38 36 36 40 34 36 37 37 38 39 40 40 40 39 39 38 38 39 40 40 42 45 46 46 46 49 51 53 53 53 54
35 37 36 38 37 40 45 41 45 36 37 39 39 41 40 39 40 40 41 41 43 44 44 46 47 48 50 53 55 56 55 55 55
37 37 38 38 38 40 43 46 43 38 38 39 40 41 43 40 41 42 42 42 44 47 47 49 51 53 55 56 56 56 57 57 58
37 37 39 39 40 41 39 40 47 39 40 41 41 43 39 41 42 43 44 46 47 48 49 52 56 58 58 58 58 58 59 60 61
38 38 39 40 38 39 42 39 37 39 41 43 50 42 42 43 44 43 45 47 49 50 53 57 59 59 60 61 62 63 65 64 64
39 39 39 41 41 40 39 42 43 44 39 51 42 40 45 47 45 46 47 48 50 53 55 58 58 60 62 65 66 68 68 67 67
39 39 38 39 41 41 40 43 42 42 43 42 42 46 48 48 48 48 50 52 56 58 59 57 58 61 64 65 66 67 69 69 71
Wind_Direction
269 268 267 267 266 266 266 268 271 273 275 278 280 279 278 280 281 283 282 283 282 283 285 285 284 284 284 285 287 286 286 286 285
265 266 266 265 265 266 267 270 271 271 272 274 273 273 276 279 283 285 285 286 283 282 283 283 281 281 282 283 281 280 281 281 280
261 263 265 266 267 266 266 266 269 269 270 272 275 279 282 285 285 289 285 286 285 285 283 281 280 279 280 279 276 276 279 278 279
267 266 265 268 269 268 266 264 264 268 271 273 277 280 283 286 289 289 290 289 288 285 282 280 280 279 279 277 278 279 278 280 281
267 267 268 266 270 270 268 266 267 269 271 274 274 276 281 286 291 288 288 284 282 281 280 280 277 277 277 279 279 280 282 283 283
269 268 268 267 269 270 270 270 269 267 267 270 274 280 285 290 293 289 290 291 283 273 274 275 277 279 279 280 281 283 285 287 286
276 275 271 268 267 267 265 265 266 266 269 273 277 280 285 290 288 291 292 290 297 291 277 275 275 275 277 278 280 283 286 287 284
274 275 271 266 265 265 265 264 266 268 269 273 277 281 284 288 288 290 292 285 287 289 290 292 293 287 286 285 285 285 285 284 285
275 279 281 274 266 263 263 265 266 268 271 273 276 280 284 287 287 289 291 284 282 283 285 290 291 290 288 287 286 285 285 284 283
277 280 284 279 271 265 264 263 266 268 271 273 276 279 282 285 286 289 291 284 283 282 288 291 293 294 292 289 289 289 289 287 286
279 280 281 283 280 271 268 267 266 268 272 274 276 278 279 283 286 288 291 284 284 287 292 294 295 294 292 291 291 291 289 288 287
278 279 279 280 277 279 274 271 269 270 272 274 276 277 280 282 286 286 288 286 287 291 294 296 296 295 295 293 292 291 290 289 287
275 275 275 276 270 274 273 274 273 273 273 274 276 278 280 282 284 287 289 289 292 294 295 296 296 296 294 293 293 293 292 290 289
279 278 279 278 278 271 270 276 275 276 277 277 279 279 281 284 286 289 291 292 293 295 296 297 297 296 296 296 295 293 292 290 289
282 281 284 282 280 281 275 280 273 272 277 279 280 281 282 284 286 290 292 295 296 297 298 298 297 296 296 295 295 294 292 290 289
279 282 285 286 282 281 279 273 276 271 276 280 283 284 282 287 290 291 293 296 298 297 298 298 296 297 297 296 294 294 293 292 291
279 283 283 287 287 286 289 279 271 271 274 278 281 284 290 292 294 294 297 297 295 296 297 297 297 298 297 297 296 295 293 292 291
278 280 284 285 288 288 290 291 291 284 277 283 276 281 289 291 292 293 294 294 296 297 298 299 299 299 299 299 298 297 296 294 292
277 280 284 286 289 287 285 288 290 293 276 293 297 292 292 293 292 294 294 295 296 297 299 299 299 301 300 300 300 298 297 296 295
275 279 284 287 287 287 287 292 287 290 292 295 295 294 294 294 295 295 297 299 300 300 300 300 299 298 297 296 295 295 294 294 293